Regional Weather Roundup
Issued by NWS

Home | Current Version | Previous Version | Text Only | Print | Product List | Glossary Off
Versions: 1 2 3 4 5 6 7 8 9 10 11 12 13 14 15 16 17 18 19 20 21 22 23 24 25 26 27 28 29 30 31 32 33 34 35 36 37 38 39 40 41 42 43 44 45 46 47 48 49 50

108
ASUS45 KPSR 261010
RWRAZ

ARIZONA HOURLY REGIONAL WEATHER ROUNDUP
NATIONAL WEATHER SERVICE PHOENIX AZ
300 AM MST TUE SEP 26 2017

NOTE: FAIR INDICATES FEW OR NO CLOUDS BELOW 12,000 FEET WITH NO
SIGNIFICANT WEATHER AND/OR OBSTRUCTIONS TO VISIBILITY.

AZZ001>003-036-261100-
NORTHWEST ARIZONA

CITY           SKY/WX    TMP DP  RH WIND       PRES   REMARKS
BULLHEAD CITY  PTCLDY    73  32  21 N23G30    29.77S
KINGMAN        CLEAR     49  26  41 E6        29.91F
$$

AZZ004>008-015-016-018-261100-
NORTH CENTRAL ARIZONA

CITY           SKY/WX    TMP DP  RH WIND       PRES   REMARKS
GRAND CANYON   CLEAR     48  20  32 E12       30.06F
WILLIAMS       CLEAR     39  12  33 S8        30.03F WCI  34
PRESCOTT       CLEAR     44  23  43 S6        29.96F
FLAGSTAFF      PTCLDY    32  14  47 CALM      30.06F
PAYSON           N/A     55   9  15 NE6       29.97S
PAGE           CLEAR     54  26  34 SW6       30.00S
$$

AZZ009>014-017-261100-
NORTHEAST ARIZONA

CITY           SKY/WX    TMP DP  RH WIND       PRES   REMARKS
WINSLOW        PTCLDY    42  12  29 W9        30.00S
SAINT JOHNS    CLEAR     36  16  44 W5        30.01S WCI  32
WINDOW ROCK    CLEAR     30  16  56 CALM      30.08F
SHOW LOW       CLEAR     39  23  52 CALM      30.04F
$$

AZZ540-542>544-546-548-261100-
GREATER PHOENIX AREA

CITY           SKY/WX    TMP DP  RH WIND       PRES   REMARKS
PHOENIX        CLEAR     67  34  29 E7        29.74S
BUCKEYE        CLEAR     57  30  35 CALM      29.76R
LUKE AFB       CLEAR     61  34  36 NW5       29.74S
DEER VALLEY    CLEAR     61  20  20 E3        29.76S
SCOTTSDALE     CLEAR     64  29  26 CALM      29.77F
MESA-GATEWAY   CLEAR     55  28  35 SE8       29.77F
$$

AZZ539-553-261100-
SOUTHWEST MARICOPA COUNTY AND PINAL COUNTY

CITY           SKY/WX    TMP DP  RH WIND       PRES   REMARKS
CASA GRANDE    NOT AVBL
GILA BEND      FAIR      62  13  14 S6        29.74S
$$

AZZ503-504-507>509-261100-
SOUTHEAST ARIZONA

CITY           SKY/WX    TMP DP  RH WIND       PRES   REMARKS
TUCSON         CLEAR     58  21  24 SE9       29.85F
DAVIS-MONTHAN  CLEAR     56  20  24 S8        29.83F
NOGALES        CLEAR     50  24  36 CALM      29.90F
SIERRA VISTA   CLEAR     56  23  27 CALM      29.95S
DOUGLAS        PTCLDY    52  21  29 NE7       29.92F
SAFFORD        CLEAR     56  16  20 S3        29.84S
$$

AZZ532-261100-
SOUTHWEST ARIZONA

CITY           SKY/WX    TMP DP  RH WIND       PRES   REMARKS
YUMA           PTCLDY    66  30  26 CALM      29.73F
$$

CAZ041-043-047-048-061-525>527-560>570-261100-
SOUTHERN CALIFORNIA

CITY           SKY/WX    TMP DP  RH WIND       PRES   REMARKS
DOWNTOWN L.A.  CLEAR     65  44  46 CALM      29.78S
L.A. AIRPORT   PTCLDY    65  45  48 CALM      29.78S
SAN DIEGO      PTCLDY    65  50  58 CALM      29.80F
BURBANK        CLEAR     64  33  31 W3        29.79F
ONTARIO        PTCLDY    65  30  27 CALM      29.81S
RIVERSIDE      CLEAR     61  34  36 CALM      29.81F
PALM SPRINGS   CLEAR     71  28  20 NW6       29.79F
EL CENTRO NAS  CLEAR     62  23  22 W9        29.75F
IMPERIAL       CLEAR     63  31  30 W7        29.73F
BLYTHE         CLEAR     64  26  23 W5        29.75S
NEEDLES        PTCLDY    73  29  19 N7        29.79S
$$

NVZ020-UTZ003-261100-
SOUTHERN NEVADA-UTAH

CITY           SKY/WX    TMP DP  RH WIND       PRES   REMARKS
LAS VEGAS      PTCLDY    63  31  30 CALM      29.91S
SALT LAKE CITY CLEAR     45  37  73 S3        30.12S
$$

NMZ009-TXZ055-261100-
NEW MEXICO-WEST TEXAS

CITY           SKY/WX    TMP DP  RH WIND       PRES   REMARKS
ALBUQUERQUE    PTCLDY    59  49  69 E21G28    30.02R
EL PASO        PTCLDY    64  36  35 CALM      29.88S
$$


........................KEY........................
SKY/WX - SKY CONDITION/WEATHER
TMP    - TEMPERATURE IN FAHRENHEIT
DP     - DEW POINT IN FAHRENHEIT
RH     - RELATIVE HUMIDITY IN PERCENT
WIND   - DIRECTION AND SPEED IN MILES PER HOUR (MPH)
VRB    - VARIABLE WIND DIRECTION
PRES   - MEAN SEA LEVEL PRESSURE IN INCHES OF MERCURY
         F - FALLING PRESSURE   R - RISING PRESSURE
         S - STEADY PRESSURE
VSB    - VISIBILITY IN MILES
HX     - HEAT INDEX IN FAHRENHEIT
WCI    - WIND CHILL INDEX IN FAHRENHEIT
TC     - TEMPERATURE IN CELSIUS WHICH IS ALSO KNOWN AS
         TEMPERATURE IN CENTIGRADE
AFB    - AIR FORCE BASE
         LUKE AFB IS LUKE AIR FORCE BASE
         DAVIS-MONTHAN IS DAVIS-MONTHAN AIR FORCE BASE
NAS    - NAVAL AIR STATION
         EL CENTRO NAS IS EL CENTRO NAVAL AIR STATION
N/A    - NOT AVAILABLE





USA.gov is the U.S. government's official web portal to all federal, state and local government web resources and services.